Regional Weather Roundup
Issued by NWS

Home | Current Version | Previous Version | Text Only | Print | Product List | Glossary On
Versions: 1 2 3 4 5 6 7 8 9 10 11 12 13 14 15 16 17 18 19 20 21 22 23 24 25 26 27 28 29 30 31 32 33 34 35 36 37 38 39 40 41 42 43 44 45 46 47 48 49 50
000
ASUS43 KLMK 230902
RWRKY
KENTUCKY REGIONAL WEATHER ROUNDUP
NATIONAL WEATHER SERVICE LOUISVILLE KY
500 AM EDT SAT SEP 23 2017

NOTE "FAIR" INDICATES FEW OR NO CLOUDS BELOW 12,000 FEET
WITH NO SIGNIFICANT WEATHER AND/OR OBSTRUCTIONS TO VISIBILITY.

KYZ001>023-026-027-061>063-070>075-231000-
WESTERN AND SOUTH CENTRAL KENTUCKY

CITY           SKY/WX    TMP DP  RH WIND       PRES   REMARKS
PADUCAH        CLEAR     67  65  93 CALM      30.00S FOG
HENDERSON      CLEAR     65  65 100 CALM      30.03S
OWENSBORO      CLEAR     70  69  97 CALM      30.03S
HOPKINSVILLE   NOT AVBL
BOWLING GREEN  CLEAR     68  68 100 CALM      30.03S
GLASGOW        CLEAR    N/A N/A N/A CALM      30.03F FOG
$$

KYZ024-025-028>034-038-045-046-053-231000-
NORTH CENTRAL KENTUCKY

CITY           SKY/WX    TMP DP  RH WIND       PRES   REMARKS
LOUISVILLE/SDF CLEAR     72  65  78 CALM      30.04S
LOUISVILLE/LOU CLEAR     67  66  97 CALM      30.05S FOG
FORT KNOX      NOT AVBL
$$

KYZ035>037-039>044-047>052-055>060-089>105-231000-
NORTHEAST KENTUCKY

CITY           SKY/WX    TMP DP  RH WIND       PRES   REMARKS
LEXINGTON      CLEAR     65  61  87 CALM      30.07R
COVINGTON      CLEAR     66  66 100 CALM      30.07S
FRANKFORT      CLEAR     63  60  90 CALM      30.05S
$$

KYZ054-064>069-076>088-106>120-231000-
SOUTHEAST KENTUCKY

CITY           SKY/WX    TMP DP  RH WIND       PRES   REMARKS
JACKSON        CLOUDY    67  64  90 E3        30.07S
LONDON         CLEAR     62  60  93 CALM      30.07S
SOMERSET       NOT AVBL
MIDDLESBORO    FOG       63  63 100 CALM      30.09S VSB 1/2
MONTICELLO     FOG       59  59 100 W3        30.08R VSB 1/4
$$




USA.gov is the U.S. government's official web portal to all federal, state and local government web resources and services.